Chihuahua, Mexico

3:12 PM MDT on August 22, 2017 (GMT -0600)
Gen Div P A Roberto Fierro

Weather History for MMCU - February, 2014

Change the Weather History Date:

Tuesday, February 25, 2014

  Actual Average Record
Temperature  
Mean Temperature 62 °F -  
Max Temperature 76 °F 70 °F 89 °F (2008)
Min Temperature 49 °F 37 °F 28 °F (2004)
Degree Days  
Heating Degree Days 2    
Growing Degree Days 12 (Base 50)    
Moisture  
Dew Point 29 °F    
Average Humidity 24    
Maximum Humidity 39    
Minimum Humidity 14    
Precipitation  
Precipitation 0.00 in - - ()
Sea Level Pressure  
Sea Level Pressure 29.95 in    
Wind  
Wind Speed 6 mph ()    
Max Wind Speed 17 mph    
Max Gust Speed 30 mph    
Visibility 8.2 miles    
Events      
Averages and records for this station are not official NWS values.
T = Trace of Precipitation, MM = Missing Value Source: Averaged Metar Reports

Daily Weather History Graph

Daily Weather History Graph

Search for Another Location

Airport or City:

Trip Planner

Search our weather history database for the weather conditions in past years. The results will help you decide how hot, cold, wet, or windy it might be!

Date:

Astronomy

Feb. 25, 2014 Rise Set
Actual Time 6:32 AM MST 6:01 PM MST
Civil Twilight 6:09 AM MST 6:25 PM MST
Nautical Twilight 5:41 AM MST 6:52 PM MST
Astronomical Twilight 5:14 AM MST 7:19 PM MST
Moon 3:17 AM MST (2/25) 2:22 PM MST (2/25)
Length of Visible Light 12h 15m
Length of Day
11h 28m
Waning Crescent, 17% of the Moon is Illuminated
Feb 25
Waning Crescent
Mar 1
New
Mar 8
First Quarter
Mar 16
Full
Mar 23
Last Quarter

Hourly Weather History & Observations

Time (MST) Temp. Windchill Dew Point Humidity Pressure Visibility Wind Dir Wind Speed Gust Speed Precip Events Conditions
1:45 AM 64 °F - 33 °F 20% 29.73 in 1 mi WNW 11.2 mph - -   Clear
4:40 AM 46.4 °F 41.5 °F 21.2 °F 37% 29.83 in 10.0 mi SSE 10.4 mph - N/A   Scattered Clouds
4:45 AM 58 °F - 33 °F 27% 29.77 in 1 mi WNW 2.2 mph - -   Clear
5:40 AM 44.6 °F 39.2 °F 19.4 °F 37% 30.08 in 10.0 mi SSE 10.4 mph - N/A   Scattered Clouds
6:44 AM 42.8 °F 38.0 °F 19.4 °F 39% 30.12 in 10.0 mi SSE 8.1 mph - N/A   Mostly Cloudy
7:40 AM 53.6 °F - 24.8 °F 33% 29.98 in 10.0 mi South 8.1 mph - N/A   Mostly Cloudy
7:45 AM 60 °F - 32 °F 23% 29.86 in 6 mi Calm Calm - -   Partly Cloudy
8:40 AM 60.8 °F - 26.6 °F 27% 30.15 in 10.0 mi SSE 3.5 mph - N/A   Mostly Cloudy
9:40 AM 64.4 °F - 28.4 °F 26% 30.16 in 10.0 mi Calm Calm - N/A   Overcast
10:42 AM 74 °F - 35 °F 14% 29.86 in 6 mi ESE 2.2 mph - -   Mostly Cloudy
10:45 AM 71.6 °F - 28.4 °F 20% 29.96 in 10.0 mi NW 5.8 mph - N/A   Overcast
11:40 AM 73.4 °F - 28.4 °F 19% 30.12 in 10.0 mi NNW 10.4 mph - N/A   Overcast
12:40 PM 73.4 °F - 28.4 °F 19% 30.07 in 10.0 mi NNW 6.9 mph - N/A   Mostly Cloudy
1:48 PM 75.2 °F - 28.4 °F 18% 29.83 in 10.0 mi Calm Calm - N/A   Overcast
2:44 PM 73.4 °F - 28.4 °F 19% 30.01 in 10.0 mi South 4.6 mph - N/A   Overcast
3:40 PM 73.4 °F - 28.4 °F 19% 30.00 in 10.0 mi Calm Calm - N/A   Overcast
4:40 PM 75.2 °F - 30.2 °F 19% 29.83 in 10.0 mi South 3.5 mph - N/A   Overcast
5:40 PM 71.6 °F - 28.4 °F 20% 30.02 in 10.0 mi North 5.8 mph - N/A   Overcast
6:40 PM 69.8 °F - 30.2 °F 23% 30.05 in 10.0 mi SW 3.5 mph - N/A   Overcast
7:40 PM 72 °F - 36 °F 16% 29.67 in 1 mi WNW 6.7 mph - -   Mostly Cloudy
7:40 PM 71.6 °F - 32.0 °F 23% 29.87 in 10.0 mi WSW 10.4 mph - N/A   Overcast
8:40 PM 68.0 °F - 32.0 °F 26% 30.12 in 10.0 mi SW 17.3 mph 29.9 mph N/A   Overcast
9:40 PM 64.4 °F - 33.8 °F 32% 30.12 in 10.0 mi SSW 13.8 mph - N/A   Overcast
10:40 PM 65 °F - 37 °F 24% 29.75 in 1 mi West 4.5 mph - -   Mostly Cloudy
10:40 PM 64.4 °F - 33.8 °F 32% 29.87 in 10.0 mi SSW 9.2 mph - N/A   Overcast